#timestamp,LO_Frequency,Hit,StdDev 
1506049215.6,286046997.6,P
1506049235.4,286046997.2,P
1506049255.2,286046996.6,Y
1506049275.1,286046998.4,P
1506049276.0,286046998.4,P
1506049295.8,286047000.1,N
1506049315.6,286047000.4,N
1506049335.5,286047001.1,N
1506049355.3,286046999.0,N
1506049375.1,286046997.0,N
1506049395.9,286046997.0,N
1506049415.7,286046999.4,N
1506049435.5,286047001.4,N
1506049455.3,286047004.0,N
1506049475.2,286047005.5,N
1506049495.0,286047003.9,N
1506049495.9,286047003.9,N
1506049515.7,286047005.9,N
1506049535.6,286047003.2,N
1506049555.4,286047009.2,Y
1506049575.2,286047010.0,P
1506049595.1,286047009.1,N
1506049596.0,286047009.1,N
1506049615.8,286047007.3,N
1506049635.6,286047008.8,N
1506049655.5,286047008.0,N
1506049675.3,286047008.3,N
1506049695.1,286047012.0,Y
1506049715.9,286047002.7,P
1506049735.7,286047003.5,N
1506049755.5,286047004.0,N
1506049775.4,286047001.5,N
1506049795.2,286047003.3,N
1506049815.0,286047004.5,N
1506049815.9,286047004.5,N
1506049835.8,286047003.0,N
1506049855.6,286047005.8,Y
1506049875.4,286046999.2,P
1506049895.3,286047001.2,N
1506049915.1,286047001.4,N
1506049916.0,286047001.4,N
1506049935.8,286047002.6,N
1506049955.7,286047002.8,N
1506049975.5,286046999.8,N
1506049995.3,286047000.0,N
1506050015.1,286046998.1,N
1506050035.9,286046999.4,N
1506050055.7,286046997.3,N
1506050075.5,286046997.4,N
1506050095.4,286046996.1,N
1506050115.2,286046994.3,N
1506050135.0,286046991.8,Y
1506050135.9,286046991.8,P
1506050155.8,286046991.7,N
1506050175.6,286046991.1,N
1506050195.4,286046994.8,N
1506050215.3,286046994.2,N
1506050235.1,286046991.9,N
1506050255.8,286046992.5,N
1506050275.7,286046992.4,N
1506050295.5,286046992.8,N
1506050315.3,286046990.7,Y
1506050335.2,286046999.4,P
1506050355.9,286046998.3,N
1506050375.7,286046996.3,N
1506050395.6,286046995.5,N
1506050415.4,286046995.7,N
1506050435.2,286046995.3,N
1506050455.1,286046996.1,N
1506050456.0,286046996.1,N
1506050475.8,286046995.9,N
1506050495.6,286046994.0,Y
1506050515.5,286046996.3,P
1506050535.3,286046991.8,P
1506050555.1,286046992.5,P
1506050575.9,286046996.2,N
1506050595.7,286046996.9,N
1506050615.5,286046999.3,N
1506050635.3,286046997.2,N
1506050655.2,286046999.1,N
1506050675.0,286046999.2,N
1506050675.9,286046999.2,N
1506050695.7,286046997.1,N
1506050715.6,286046998.1,N
1506050735.4,286047000.8,N
1506050755.2,286047002.3,N
1506050775.1,286046999.8,N
1506050776.0,286046999.8,N
1506050795.8,286046998.2,N
1506050815.6,286047000.0,N
1506050835.5,286047001.6,N
1506050855.3,286047005.6,N
1506050875.1,286047007.2,N
1506050895.9,286047004.7,N
1506050915.7,286047005.3,N
1506050935.5,286047004.9,N
1506050955.3,286047007.4,N
1506050975.2,286047005.3,N
1506050995.0,286047003.6,N
1506050995.9,286047003.6,N
1506051015.7,286047001.3,N
1506051035.6,286047005.7,N
1506051055.4,286047005.0,N
1506051075.2,286047005.0,N
1506051095.1,286047004.4,N
1506051096.0,286047004.4,N
1506051115.8,286047002.4,N
1506051135.6,286047003.5,N
1506051155.5,286047004.7,N
1506051175.3,286047004.1,N
1506051195.1,286047002.2,N
1506051215.9,286047003.0,N
1506051235.7,286047004.9,N
1506051255.5,286047007.4,Y
1506051275.4,286046998.5,P
1506051295.2,286046998.5,N
1506051315.0,286046999.3,N
1506051315.9,286046999.3,N
1506051335.8,286047000.3,N
1506051355.6,286047000.7,N
1506051375.4,286046998.6,N
1506051395.2,286046999.4,N
1506051415.1,286046999.6,N
1506051416.0,286046999.6,N
1506051435.8,286046990.8,Y
1506051455.7,286046990.7,P
1506051475.5,286046990.1,N
1506051495.3,286046994.2,N
1506051515.1,286046996.2,N
1506051535.9,286046997.6,N
1506051555.7,286046996.8,N
1506051575.5,286046997.1,N
1506051595.4,286047000.7,N
1506051615.2,286047000.9,N
1506051635.0,286047004.3,N
1506051635.9,286047004.3,N
1506051655.8,286047001.4,N
1506051675.6,286047004.3,N
1506051695.4,286047003.5,N
1506051715.3,286047004.9,N
1506051735.1,286047006.8,N
1506051736.0,286047006.8,N
1506051755.8,286047007.6,N
1506051775.7,286047007.5,N
1506051795.5,286047006.9,N
1506051815.3,286047006.8,N
1506051835.1,286047008.7,N
1506051855.9,286047008.6,N
1506051875.7,286047009.9,N
1506051895.5,286047012.2,N
1506051915.4,286047013.9,N
1506051935.2,286047011.4,N
1506051955.0,286047015.1,N
1506051955.9,286047015.1,N
1506051975.8,286047012.5,N
1506051995.6,286047012.9,N
1506052015.4,286047012.0,N
1506052035.3,286047011.2,N
1506052055.1,286047012.0,N
1506052056.0,286047012.0,N
1506052075.8,286047010.0,N
1506052095.7,286047012.3,N
1506052115.5,286047011.6,N
1506052135.3,286047012.8,Y
1506052155.2,286047005.6,P
1506052175.9,286047003.0,N
1506052195.7,286047005.6,N
1506052215.6,286047006.7,Y
1506052235.4,286047001.7,P
1506052255.2,286047001.9,N
1506052275.1,286047000.4,N
1506052276.0,286047000.4,N
1506052295.8,286047000.8,N
1506052315.6,286046998.7,N
1506052335.4,286047000.8,N
1506052355.3,286047002.8,N
1506052375.1,286047001.8,N
1506052395.8,286047003.9,N
1506052415.7,286047000.8,N
1506052435.5,286047000.7,N
1506052455.3,286047000.4,N
1506052475.2,286047000.9,N
1506052495.9,286047002.8,N
1506052515.7,286047001.3,N
1506052535.6,286047003.8,N
1506052555.4,286047005.6,Y
1506052575.2,286047005.6,P
1506052595.1,286047002.9,N
1506052596.0,286047002.9,N
1506052615.8,286047007.1,Y
1506052635.6,286047002.3,P
1506052655.5,286047002.2,P
1506052675.3,286047001.0,N
1506052695.1,286046999.0,N
1506052715.9,286047000.7,N
1506052735.7,286046996.6,N
1506052755.5,286046998.8,N
1506052775.4,286047002.8,N
1506052795.2,286047000.1,N
